ISS (ZARYA) (25544 NORAD) Tracking and Keplerian Element Data

This shows tracking and keplerian element data for the satellite.

Feedback or suggestion? Click here.




ElementValue
Catalog25544
NameISS (ZARYA)
Epoch Orbit43438
Epoch Day13.33307216
Epoch Year2024
RAAN7.5856
Inclination51.6402
Eccentricity0.0004874
Argument of Perigee89.8117
Mean Anonmoly8.8574
Mean Motion15.49380128
Decay Rate0.00118192
L11 25544U 98067A 24013.33307216 .00118192 00000+0 20926-2 0 9997
L22 25544 51.6402 7.5856 0004874 89.8117 8.8574 15.49380128434383



Live tracking and technical data element details for ISS (ZARYA) (NORAD 25544). ISS (ZARYA) can be tracked NOW for your location showing map with azimuth and elevation plus other details from your city location.







IsCatalogInMostPopularTable: catalog: 25544, numindb: 147757
Update: records affected: 1



GetName: 25544 ISS (ZARYA)

Hit Count: updated at: Sat, 20 Apr 2024 10:05:38 GMT